ASIASAT 5

Last updated on Thu Jul 03 2025 00:02:45 GMT+0000 (Coordinated Universal Time)

1 35696U 09042A 25183.61967477 -.00000299 00000+0 00000+0 0 9999 2 35696 0.0333 62.6253 0001231 23.7724 158.1462 1.00266708 58208
UTC large
Height (km)
Speed (km/s)
/
Latitude / Longitude
Inclination (degrees)
Orbital Period (minutes)
Azimuth
Elevation
Range (km)
Doppler Factor

Next 0 passes for location: London (51.5072 / 0.1276)

Sorry there are no passes over London.